Regional Weather Roundup
Issued by NWS Austin/San Antonio, TX

Home | Current Version | Previous Version | Text Only | Print | Product List | Glossary On
Versions: 1 2 3 4 5 6 7 8 9 10 11 12 13 14 15 16 17 18 19 20 21 22 23 24 25 26 27 28 29 30 31 32 33 34 35 36 37 38 39 40 41 42 43 44 45 46 47 48 49 50
662
ASUS44 KEWX 241701
RWREWX
SOUTH TEXAS REGIONAL WEATHER ROUNDUP
NATIONAL WEATHER SERVICE AUSTIN/SAN ANTONIO TX
1200 PM CDT SAT AUG 24 2019

NOTE: "FAIR" INDICATED FEW OR NO CLOUDS BELOW 12,000 FEET WITH NO
SIGNIFICANT WEATHER AND/OR OBSTRUCTIONS TO VISIBILITY.

* - THESE STATIONS ARE NOT NWS OR FAA STATIONS...AND ARE NOT SUBJECT
    TO NWS AND FAA QUALITY CONTROL.

TXZ171-172-183>190-241800-
TEXAS HILL COUNTRY AND EDWARDS PLATEAU

CITY           SKY/WX    TMP DP  RH WIND       PRES   REMARKS
JUNCTION       SUNNY     86  73  65 S5        29.98F HX  93
*LLANO         PTSUNNY   86  73  66 SE5       30.00S HX  93
BURNET         MOSUNNY   86  71  60 SE6       29.99S HX  91
*HORSESHOE BAY PTSUNNY   84  72  65 CALM      29.98S
*KERRVILLE     MOSUNNY   82  73  74 CALM      29.99F
*FREDERICKSBRG CLOUDY    79  72  80 SE3       29.99F
*ROCKSPRINGS   SUNNY     82  70  65 SE5       30.05F
*BOERNE        PTSUNNY   86  72  62 CALM      29.99F HX  92
*CASTROVILLE   PTSUNNY   88  69  54 NE3       29.96S HX  92
HONDO          MOSUNNY   90  71  53 NE5       29.94F HX  96
*UVALDE        SUNNY     85  71  62 CALM      29.95F HX  90
DEL RIO        SUNNY     92  71  50 SE9       29.90F HX  98
LAUGHLIN AFB   SUNNY     90  71  53 SE12      29.91F HX  97
SPOFFORD       NOT AVBL
*EAGLE PASS    MOSUNNY   91  72  52 VRB6G16   29.92S HX  98
CARRIZO SPRGS  MOSUNNY   86  73  66 E7        29.91F HX  93
$$

TXZ173-191>194-202-209-217>225-228-241800-
CENTRAL AND SOUTH CENTRAL TEXAS

CITY           SKY/WX    TMP DP  RH WIND       PRES   REMARKS
GEORGETOWN     PTSUNNY   89  72  56 S5        29.96F HX  96
AUSTIN/BERGSTM PTSUNNY   90  75  61 CALM      29.92F HX 100
AUSTIN/MABRY   SUNNY     87  72  60 N3        29.95F HX  93
*AUSTIN/EXEC   MOSUNNY   86  73  66 CALM      29.94F HX  93
*LAGO VISTA    SUNNY     83  73  69 CALM      29.98S
SAN MARCOS     PTSUNNY   90  74  59 S5        29.94F HX  99
NEW BRAUNFELS  MOSUNNY   89  73  59 CALM      29.92F HX  97
RANDOLPH AFB   MOSUNNY   87  74  64 SE3       29.93F HX  96
SEGUIN         CLOUDY    88  72  60 NE5       29.96F HX  94
KELLY FIELD    PTSUNNY   88  74  63 CALM      29.92F HX  96
SAN ANTONIO    CLOUDY    87  73  62 CALM      29.94F HX  94
STINSON FIELD  SUNNY     88  73  61 CALM      29.91S HX  95
PLEASANTON     SUNNY     88  73  61 NE3       29.92F HX  95
*LA GRANGE     MOSUNNY   90  76  62 CALM      29.91S HX 101
*GIDDINGS      SUNNY     92  74  54 E5        29.94S HX 102
*GONZALES      MOSUNNY   92  74  54 CALM      29.91F HX 101
$$

TXZ163>164-176>182-195>201-210>213-226-227-235-241800-
SOUTHEAST TEXAS

CITY           SKY/WX    TMP DP  RH WIND       PRES   REMARKS
COLLEGE STN    MOSUNNY   91  72  53 E3        29.93F HX  98
*BRYAN         PTSUNNY   92  74  55 E7        29.95S HX 101
*CALDWELL      CLOUDY    90  73  56 NW5       29.94S HX  98
*CROCKETT      PTSUNNY   86  72  62 NE7       29.98F HX  92
*BRENHAM       SUNNY     91  73  55 SE3       29.93F HX  99
HUNTSVILLE     PTSUNNY   90  70  51 MISG      29.94F HX  95
CONROE         MOSUNNY   88  74  63 SE8       29.94F HX  96
HOUSTON BUSH   PTSUNNY   88  72  58 NE5       29.92S HX  94
HOUSTON HOBBY  PTSUNNY   87  73  62 VRB5      29.93R HX  94
*HOUSTON SW AP FAIR      85  75  72 CALM      29.95R HX  94
PEARLAND       PTSUNNY   86  74  67 E5        29.94S HX  94
HOUSTON HOOKS  PTSUNNY   90  74  59 E6        29.92F HX  99
ELLINGTON FLD  NOT AVBL
SUGAR LAND     FAIR      88  76  67 NE6       29.93R HX  99
*HOUSTON EXEC  PTSUNNY   88  73  62 CALM      29.94S HX  96
*CLEVELAND MUN PTSUNNY   83  78  83 CALM      29.94F HX  93
*WHARTON       PTSUNNY   86  75  69 SE7       29.94S HX  94
*COLUMBUS      CLOUDY    92  70  47 CALM      29.93S HX  98
*EAGLE LAKE    MOSUNNY   92  77  61 NE6       29.92F HX 104
$$

TXZ214>216-236>238-241800-
THE UPPER TEXAS COAST

CITY           SKY/WX    TMP DP  RH WIND       PRES   REMARKS
*ORANGE        CLOUDY    82  80  92 SE6       29.95S HX  93
PORT ARTHUR    PTSUNNY   86  76  71 E10G17    29.93R HX  96
GALVESTON      PTSUNNY   84  78  82 E7        29.94S HX  95
ANGLETON       FAIR      84  77  79 E7        29.94S HX  94
*BAY CITY      SUNNY     88  79  75 NE8       29.93F HX 103
PALACIOS       PTSUNNY   91  76  61 N9        29.92S HX 103
$$

TXZ229>234-239>247-241800-
TEXAS COASTAL BEND AND RIO GRANDE PLAINS

CITY           SKY/WX    TMP DP  RH WIND       PRES   REMARKS
VICTORIA       MOSUNNY   93  74  53 E5        29.91S HX 103
*BEEVILLE      NOT AVBL
ROCKPORT       LGT RAIN  85  80  85 E8        29.90R HX  99
*PORT ARANSAS  SUNNY     88  80  77 SE7       29.92S HX 104
*PORT LAVACA   SUNNY     91  79  66 SE5       29.92S HX 108
*INGLESIDE     MOSUNNY   92  77  59 S6        29.89F HX 105
CORPUS CHRISTI PTSUNNY   93  75  55 SE5       29.89S HX 104
CORPUS NAS       N/A    N/A N/A N/A MISG      29.89S
*ROBSTOWN      SUNNY     92  76  59 S5        29.89F HX 104
ALICE          MOSUNNY   93  73  52 S6        29.88F HX 102
KINGSVILLE NAS MOSUNNY   94  75  54 SW5       29.88F HX 105
COTULLA        MOSUNNY   92  71  50 MISG      29.91S HX  98
LAREDO         SUNNY     93  74  53 VRB5      29.88F HX 103
$$

TXZ248>255-241800-
DEEP SOUTH TEXAS

CITY           SKY/WX    TMP DP  RH WIND       PRES   REMARKS
BROWNSVILLE    FAIR      96  78  56 S14G20    29.88R HX 112
PORT ISABEL    FAIR      94  75  54 S9        29.88S HX 105
HARLINGEN      PTSUNNY   94  75  54 S8        29.87S HX 105
*HEBBRONVILLE  MOSUNNY   91  71  52 CALM      29.91F HX  96
MCALLEN        MOSUNNY   96  71  44 SE7       29.87F HX 103
*WESLACO       SUNNY     93  73  51 SW10      29.87S HX 102
FALFURRIAS     MOSUNNY   96  74  49 SW5       29.88S HX 107
EDINBURG       FAIR      98  70  40 SE8       29.87F HX 104
*ZAPATA        FAIR      92  69  46 NE5       29.89F HX  97
$$

TXZ213>215-236>238-242>244-246-247-251-254-255-241800-
CMAN STATIONS

STATION/POSITION TIME  TEMP    WIND        PRES    WAVE
                       AIR SEA DIR/SP/G            HT/PER
                 (UTC) (F)     (DEG/KT/KT) (MB)    (FT/S)
SABINE PASS      1624   81 88  140/ 13/ 15 1015.5
NORTH JETTY/GLS  1624   82 86   90/  5/  7 1012.8
EAGLE POINT      1624   81 84   40/  6/  7 1013.1
MORGANS POINT    1624   84 86   70/  4/  8 1013.6
PORT O`CONNOR    1624   83 87   80/  9/ 10 1012.8
PORT ARANSAS     1600   84 87  110/  8/  9 1012.7
MALAQUITE BEACH  1624   89 87  110/  9/ 10 1012.4
BAFFIN BAY       1624   86 89   90/  8/ 10 1012.5
PORT ISABEL      1624   89 82  160/  7/ 12 1012.3
$$




USA.gov is the U.S. government's official web portal to all federal, state and local government web resources and services.